Latest Coastal Weather Observations for Yamba

IDN60701

Issued at 4:02 pm EST Tuesday 4 August 2020 (issued every 10 minutes, with the page automatically refreshed every 10 minutes)

About coastal observations | Map of coastal stations | Coastal observations for NSW | Marine services | Other Formats
Station Details ID: 058012 Name: YAMBA PILOT STATION Lat: -29.43 Lon: 153.36 Height: 27.4 m
Data from the previous 72 hours. | See also: Recent months at Yamba
Date/Time
EST
Wind Sea
Height
m
Swell Vis
km
Cloud Weather Temp
°C
Press
hPa
Rain since
9am
mm
Dir  Spd
kts
Gust
kts
Height
m
Period
s
Dir
04/04:00pm NNE 8 13 - - - - - - - 21.2 1011.4 0.0
04/03:30pm NNE 7 11 - - - - - - - 21.8 1011.2 0.0
04/03:00pm NNE 7 11 - - - - - - - 22.4 1011.3 0.0
04/02:30pm ENE 7 11 - - - - - - - 21.5 1011.4 0.0
04/02:00pm NE 5 9 - - - - - - - 22.4 1011.6 0.0
04/01:30pm NNE 5 9 - - - - - - - 22.8 1011.8 0.0
04/01:00pm N 4 7 - - - - - - - 23.6 1012.2 0.0
04/12:30pm NE 5 7 - - - - - - - 22.2 1012.8 0.0
04/12:00pm NE 4 5 - - - - - - - 21.1 1013.4 0.0
04/11:30am NNW 5 8 - - - - - - - 22.2 1014.2 0.0
04/11:00am NW 5 6 - - - - - - - 21.4 1014.7 0.0
04/10:30am NW 5 8 - - - - - - - 20.0 1015.6 0.0
04/10:00am NW 5 8 - - - - - - - 18.6 1015.7 0.0
04/09:30am WNW 5 8 - - - - - - - 16.4 1016.0 0.0
04/09:00am W 6 9 - - - - - - - 14.5 1016.4 0.0
04/08:30am W 6 9 - - - - - - - 13.9 1016.5 0.0
04/08:00am W 6 8 - - - - - - - 13.0 1016.4 0.0
04/07:30am WNW 6 8 - - - - - - - 13.3 1016.4 0.0
04/07:00am NNW 4 5 - - - - - - - 12.8 1016.2 0.0
04/06:30am NW 4 5 - - - - - - - 12.4 1016.0 0.0
04/06:00am W 6 8 - - - - - - - 12.5 1015.9 0.0
04/05:30am W 6 9 - - - - - - - 12.8 1015.8 0.0
04/05:00am W 6 8 - - - - - - - 13.1 1016.0 0.0
04/04:30am W 6 8 - - - - - - - 13.0 1016.1 0.0
04/04:00am W 5 6 - - - - - - - 13.1 1016.1 0.0
04/03:30am W 5 8 - - - - - - - 13.6 1016.2 0.0
04/03:00am W 5 7 - - - - - - - 13.6 1016.5 0.0
04/02:30am NW 4 5 - - - - - - - 13.8 1016.5 0.0
04/02:00am NNW 5 7 - - - - - - - 14.3 1016.4 0.0
04/01:30am NNW 5 7 - - - - - - - 14.5 1016.5 0.0
04/01:00am NNW 5 8 - - - - - - - 14.9 1016.6 0.0
04/12:30am NW 6 8 - - - - - - - 15.1 1016.8 0.0
04/12:00am NW 6 9 - - - - - - - 15.5 1017.2 0.0
 
Date/Time
EST
Wind Sea
Height
m
Swell Vis
km
Cloud Weather Temp
°C
Press
hPa
Rain since
9am
mm
Dir  Spd
kts
Gust
kts
Height
m
Period
s
Dir
03/11:30pm NNW 7 10 - - - - - - - 15.1 1017.3 0.0
03/11:00pm NNW 7 10 - - - - - - - 15.3 1017.3 0.0
03/10:30pm NNW 8 11 - - - - - - - 15.7 1017.4 0.0
03/10:00pm NNW 9 12 - - - - - - - 16.2 1017.2 0.0
03/09:30pm N 8 11 - - - - - - - 16.2 1017.3 0.0
03/09:00pm N 6 9 - - - - - - - 16.3 1017.3 0.0
03/08:30pm N 7 10 - - - - - - - 16.7 1017.2 0.0
03/08:00pm NNE 5 10 - - - - - - - 17.3 1016.9 0.0
03/07:30pm NNE 4 8 - - - - - - - 17.2 1016.9 0.0
03/07:00pm NNE 5 9 - - - - - - - 17.4 1016.8 0.0
03/06:30pm N 5 9 - - - - - - - 17.2 1016.8 0.0
03/06:00pm NNE 5 10 - - - - - - - 17.4 1016.9 0.0
03/05:30pm NNE 6 11 - - - - - - - 17.8 1016.9 0.0
03/05:00pm NE 5 8 - - - - - - - 18.4 1016.9 0.0
03/04:30pm NE 5 9 - - - - - - - 18.8 1017.0 0.0
03/04:00pm NE 5 8 - - - - - - - 20.2 1017.2 0.0
03/03:30pm NE 5 9 - - - - - - - 20.0 1017.4 0.0
03/03:00pm NE 5 10 - - - - - - - 21.0 1017.4 0.0
03/02:30pm NNE 6 8 - - - - - - - 21.6 1017.7 0.0
03/02:00pm NE 4 6 - - - - - - - 21.2 1018.0 0.0
03/01:30pm NE 5 7 - - - - - - - 21.5 1018.3 0.0
03/01:00pm NE 5 8 - - - - - - - 20.8 1018.9 0.0
03/12:30pm NNW 5 7 - - - - - - - 21.7 1019.2 0.0
03/12:00pm NNW 5 7 - - - - - - - 21.6 1019.8 0.0
03/11:30am NNW 5 7 - - - - - - - 20.7 1020.4 0.0
03/11:00am NNW 5 7 - - - - - - - 19.9 1021.0 0.0
03/10:30am WNW 6 8 - - - - - - - 18.1 1021.6 0.0
03/10:00am W 6 9 - - - - - - - 17.1 1022.2 0.0
03/09:30am W 6 9 - - - - - - - 15.9 1022.3 0.0
03/09:00am W 5 8 - - - - - - - 13.9 1022.2 0.0
03/08:30am W 6 9 - - - - - - - 12.6 1022.1 0.0
03/08:00am W 5 7 - - - - - - - 13.1 1022.1 0.0
03/07:30am W 6 8 - - - - - - - 11.8 1022.2 0.0
03/07:00am W 6 10 - - - - - - - 11.1 1022.1 0.0
03/06:30am W 6 8 - - - - - - - 10.7 1021.8 0.0
03/06:00am W 6 9 - - - - - - - 10.9 1021.6 0.0
03/05:30am W 7 9 - - - - - - - 11.0 1021.2 0.0
03/05:00am WSW 6 8 - - - - - - - 11.1 1020.9 0.0
03/04:30am W 7 8 - - - - - - - 11.1 1020.8 0.0
03/04:00am W 6 8 - - - - - - - 11.4 1020.8 0.0
03/03:30am W 6 8 - - - - - - - 11.6 1020.9 0.0
03/03:00am W 6 8 - - - - - - - 11.7 1021.2 0.0
03/02:30am W 6 8 - - - - - - - 11.7 1021.4 0.0
03/02:00am W 6 8 - - - - - - - 11.9 1021.8 0.0
03/01:30am WSW 5 7 - - - - - - - 12.4 1021.9 0.0
03/01:00am WSW 5 8 - - - - - - - 12.6 1022.1 0.0
03/12:30am SW 7 10 - - - - - - - 12.8 1022.5 0.0
03/12:00am WSW 6 9 - - - - - - - 13.2 1022.6 0.0
 
Date/Time
EST
Wind Sea
Height
m
Swell Vis
km
Cloud Weather Temp
°C
Press
hPa
Rain since
9am
mm
Dir  Spd
kts
Gust
kts
Height
m
Period
s
Dir
02/11:30pm SW 2 5 - - - - - - - 13.4 1022.6 0.0
02/11:00pm CALM 0 0 - - - - - - - 15.7 1022.8 0.0
02/10:30pm ESE 4 6 - - - - - - - 16.8 1022.9 0.0
02/10:00pm ESE 5 6 - - - - - - - 17.2 1023.1 0.0
02/09:30pm ESE 5 7 - - - - - - - 17.5 1023.1 0.0
02/09:00pm ESE 7 9 - - - - - - - 17.5 1023.3 0.0
02/08:30pm ESE 7 9 - - - - - - - 17.5 1023.2 0.0
02/08:00pm ESE 7 10 - - - - - - - 17.5 1023.2 0.0
02/07:30pm ESE 7 9 - - - - - - - 17.5 1023.2 0.0
02/07:00pm ESE 7 10 - - - - - - - 17.5 1023.2 0.0
02/06:30pm ESE 6 9 - - - - - - - 17.5 1023.0 0.0
02/06:00pm ESE 6 9 - - - - - - - 17.3 1022.8 0.0
02/05:30pm ESE 6 9 - - - - - - - 17.4 1022.6 0.0
02/05:00pm ESE 6 7 - - - - - - - 17.6 1022.5 0.0
02/04:30pm ESE 6 8 - - - - - - - 17.9 1022.6 0.0
02/04:00pm ESE 5 8 - - - - - - - 18.4 1022.5 0.0
02/03:30pm ESE 5 8 - - - - - - - 18.7 1022.4 0.0
02/03:00pm ESE 5 7 - - - - - - - 19.1 1022.3 0.0
02/02:30pm ESE 4 6 - - - - - - - 19.7 1022.3 0.0
02/02:00pm E 5 8 - - - - - - - 19.6 1022.5 0.0
02/01:30pm ENE 6 7 - - - - - - - 19.8 1022.8 0.0
02/01:00pm E 5 7 - - - - - - - 19.8 1023.0 0.0
02/12:30pm NW 3 5 - - - - - - - 21.1 1023.4 0.0
02/12:00pm NW 4 6 - - - - - - - 20.5 1024.2 0.0
02/11:30am NW 4 6 - - - - - - - 20.5 1024.6 0.0
02/11:00am NW 4 7 - - - - - - - 19.5 1025.1 0.0
02/10:30am WNW 6 8 - - - - - - - 18.6 1025.6 0.0
02/10:00am W 5 8 - - - - - - - 17.3 1025.8 0.0
02/09:30am W 6 8 - - - - - - - 16.2 1025.9 0.0
02/09:00am W 7 9 - - - - - - - 14.6 1025.9 0.0
02/08:30am W 6 8 - - - - - - - 13.3 1025.7 0.0
02/08:00am W 6 9 - - - - - - - 12.2 1025.5 0.0
02/07:30am W 6 7 - - - - - - - 11.7 1025.6 0.0
02/07:00am WSW 6 9 - - - - - - - 11.0 1025.3 0.0
02/06:30am W 6 7 - - - - - - - 10.6 1024.9 0.0
02/06:00am W 6 8 - - - - - - - 10.7 1024.6 0.0
02/05:30am W 6 8 - - - - - - - 10.8 1024.4 0.0
02/05:00am W 6 8 - - - - - - - 11.0 1024.0 0.0
02/04:30am WSW 6 9 - - - - - - - 11.2 1024.0 0.0
02/04:00am W 5 7 - - - - - - - 11.4 1023.9 0.0
02/03:30am WSW 6 9 - - - - - - - 11.9 1023.9 0.0
02/03:00am SW 7 10 - - - - - - - 12.0 1024.0 0.0
02/02:30am WSW 5 8 - - - - - - - 11.6 1024.1 0.0
02/02:00am WSW 5 7 - - - - - - - 11.6 1024.1 0.0
02/01:30am W 6 7 - - - - - - - 12.0 1024.4 0.0
02/01:00am W 6 7 - - - - - - - 12.1 1024.8 0.0
02/12:30am W 6 8 - - - - - - - 12.2 1024.9 0.0
02/12:00am WSW 5 7 - - - - - - - 12.8 1025.1 0.0
 
Date/Time
EST
Wind Sea
Height
m
Swell Vis
km
Cloud Weather Temp
°C
Press
hPa
Rain since
9am
mm
Dir  Spd
kts
Gust
kts
Height
m
Period
s
Dir
01/11:30pm SW 7 8 - - - - - - - 13.2 1025.1 0.0
01/11:00pm WSW 5 6 - - - - - - - 13.5 1025.2 0.0
01/10:30pm WSW 5 6 - - - - - - - 13.8 1025.1 0.0
01/10:00pm SW 3 4 - - - - - - - 14.5 1025.2 0.0
01/09:30pm W 4 5 - - - - - - - 14.6 1025.2 0.0
01/09:00pm E 4 6 - - - - - - - 16.8 1025.1 0.0
01/08:30pm ESE 5 7 - - - - - - - 16.8 1025.1 0.0
01/08:00pm E 5 7 - - - - - - - 16.8 1024.8 0.0
01/07:30pm E 5 8 - - - - - - - 16.8 1024.6 0.0
01/07:00pm E 5 7 - - - - - - - 16.8 1024.6 0.0
01/06:30pm ESE 5 8 - - - - - - - 16.7 1024.4 0.0
01/06:00pm ESE 6 7 - - - - - - - 16.8 1024.1 0.0
01/05:30pm ESE 5 7 - - - - - - - 16.7 1023.9 0.0
01/05:00pm SE 4 7 - - - - - - - 16.7 1023.7 0.0
01/04:30pm ESE 5 7 - - - - - - - 17.1 1023.5 0.0

Other formats

Comma delimited format used in spreadsheet applications
http://www.bom.gov.au/fwo/IDN60701/IDN60701.94589.axf

JavaScript Object Notation format (JSON) in row-major order
http://www.bom.gov.au/fwo/IDN60701/IDN60701.94589.json

Data quality

Most of these data are generated automatically and are frequently updated. Quality checks on data are not normally performed. It is possible for incorrect values to appear. Refer to information at About Latest Weather Observations and please check the disclaimer before using these data.